BRITE-TORONTO (40020 NORAD) Tracking and Keplerian Element Data

This shows tracking and keplerian element data for the satellite.

Feedback or suggestion? Click here.




ElementValue
Catalog40020
NameBRITE-TORONTO
Epoch Orbit21797
Epoch Day198.92381888
Epoch Year2018
RAAN55.6798
Inclination97.7828
Eccentricity0.008833
Argument of Perigee146.2107
Mean Anonmoly214.4771
Mean Motion14.66505557
Decay Rate2.8E-07
L11 40020U 14033L 18198.92381888 .00000028 00000-0 13152-4 0 9997
L22 40020 97.7828 55.6798 0088330 146.2107 214.4771 14.66505557217978

Live tracking and technical data element details for BRITE-TORONTO (NORAD 40020). BRITE-TORONTO can be tracked NOW for your location showing map with azimuth and elevation plus other details from your city location.

Track the satellite on the map from your city or location and see movement details for azimuth, elevation, latitude, longitude, range, height, and movement on the map or in text.







IsCatalogInMostPopularTable: catalog: 40020, numindb: 53
Update: records affected: 1



GetName: 40020 BRITE-TORONTO

Hit Count: updated at: Thu, 19 Jul 2018 03:55:32 GMT